Regional Weather Roundup
Issued by NWS

Home | Current Version | Previous Version | Text Only | Print | Product List | Glossary On
Versions: 1 2 3 4 5 6 7 8 9 10 11 12 13 14 15 16 17 18 19 20 21 22 23 24 25 26 27 28 29 30 31 32 33 34 35 36 37 38 39 40 41 42 43 44 45 46 47 48 49 50
000
ASUS43 KOAX 232110
RWRNE

WEATHER ROUNDUP FOR NEBRASKA
NATIONAL WEATHER SERVICE OMAHA NE
300 PM CST THU NOV 23 2017

NOTES: SATELLITE DATA IS BEING USED TO AUGMENT CLOUD COVER ABOVE
       12000 FEET.
       "FAIR" INDICATES FEW OR NO CLOUDS BELOW 12,000 FEET WITH NO
       SIGNIFICANT WEATHER AND/OR OBSTRUCTIONS TO VISIBILITY.


NEZ001>004-019>022-054>056-232200-
NEBRASKA PANHANDLE

CITY           SKY/WX    TMP DP  RH WIND       PRES   REMARKS
SCOTTSBLUFF    CLOUDY    71  35  26 NW22G28   29.91F
ALLIANCE       SUNNY     70  39  32 W17       29.90F
CHADRON        SUNNY     75  35  23 W17       29.85F
GORDON         FAIR      71  38  30 SW14      29.85F
KIMBALL        CLOUDY    71  28  20 W26G33    29.98F
SIDNEY         CLOUDY    72  34  24 NW15      29.96F
$$

NEZ057>060-069>072-079>082-232200-
SOUTHWEST NEBRASKA

CITY           SKY/WX    TMP DP  RH WIND       PRES   REMARKS
NORTH PLATTE   SUNNY     72  41  32 W14       29.90F
IMPERIAL       SUNNY     72  36  26 W8        29.93F
LEXINGTON      SUNNY     71  41  33 SW10G17   29.90F
MCCOOK         CLOUDY    72  42  34 W12       29.92F
OGALLALA       SUNNY     72  39  30 W8        29.92F
$$

NEZ005>010-023>029-035>040-094-232200-
NORTH CENTRAL NEBRASKA

CITY           SKY/WX    TMP DP  RH WIND       PRES   REMARKS
VALENTINE      SUNNY     75  38  26 SW15      29.81F
AINSWORTH      SUNNY     72  40  31 SW15      29.82F
BROKEN BOW     SUNNY     73  41  31 SW14      29.87F
O`NEILL        SUNNY     72  43  35 SW12      29.81F
ORD            SUNNY     73  40  30 SW10      29.84F
THEDFORD       SUNNY     73  40  30 W14       29.87F
$$

NEZ041-046>049-061>064-073>077-083>087-232200-
SOUTH CENTRAL NEBRASKA

CITY           SKY/WX    TMP DP  RH WIND       PRES   REMARKS
GRAND ISLAND   SUNNY     72  42  34 SW15      29.89F
AURORA         SUNNY     72  39  30 SW14      29.88F
HASTINGS       SUNNY     71  38  29 SW9G18    29.90F
HEBRON         SUNNY     73  39  29 SW7       29.91F
HOLDREGE       SUNNY     69  43  38 SW12      29.91F
KEARNEY        SUNNY     71  42  35 SW14      29.89F
YORK           SUNNY     72  41  33 SW13      29.88F
$$

NEZ011>018-030>034-042>045-232200-
NORTHEAST NEBRASKA

CITY           SKY/WX    TMP DP  RH WIND       PRES   REMARKS
NORFOLK        SUNNY     71  41  33 SW17      29.82F
ALBION         SUNNY     73  43  33 SW13      29.84F
BLAIR          SUNNY     61  39  43 S9        29.88F
COLUMBUS       SUNNY     71  43  36 SW10      29.86F
FREMONT        CLOUDY    65  39  38 S8        29.88F
TEKAMAH        CLOUDY    62  37  39 S13       29.86F
WAYNE          SUNNY     69  37  31 S12       29.83F
$$

NEZ050>053-065>068-078-088>093-232200-
SOUTHEAST NEBRASKA

CITY           SKY/WX    TMP DP  RH WIND       PRES   REMARKS
LINCOLN        CLOUDY    70  41  34 S10       29.90F
OMAHA EPPLEY   MOSUNNY   61  37  41 S8        29.89F
BEATRICE       SUNNY     71  42  35 SW7       29.91F
FALLS CITY     SUNNY     65  37  35 S3        29.92F
NEBRASKA CITY  SUNNY     63  39  41 SW7       29.92F
PLATTSMOUTH    SUNNY     62  38  41 SE6       29.91F
$$

NEZ044-045-051>053-067-232200-
OMAHA AREA

CITY           SKY/WX    TMP DP  RH WIND       PRES   REMARKS
OMAHA EPPLEY   MOSUNNY   61  37  41 S8        29.89F
BLAIR          SUNNY     61  39  43 S9        29.88F
FREMONT        CLOUDY    65  39  38 S8        29.88F
MILLARD        CLOUDY    64  40  41 S6        29.89F
OFFUTT AFB     SUNNY     63  37  38 S7        29.90F
PLATTSMOUTH    SUNNY     62  38  41 SE6       29.91F
WAHOO          FAIR      67  38  34 S10       29.88F
$$



USA.gov is the U.S. government's official web portal to all federal, state and local government web resources and services.